Flag for Israel Weather past 2 weeks in Ra'anana, Israel

Now
81 °F

Clear.


Feels Like: 80 °F
Forecast: 68 / 85 °F
Wind: 3 mph from North

Location: Dov Airport


UV Index: 7 (High)

Visibility: 10 mi


Pressure: 29.86 "Hg

Humidity: 30%

Dew point: 46 °F

Location of Ra'ananaLocation

Historic Weather in Ra'anana

°F

Ra'anana temperature yesterday

Maximum temperature yesterday: 75 °F (at 10:50 AM)
Minimum temperature yesterday: 66 °F (at 5:50 AM)
Average temperature yesterday: 70 °F

Past Weeks' High & Low Weather Summary

 TemperatureHumidityPressure
High86 °F (Apr 7, 9:50 AM)88% (Apr 5, 6:50 AM)30.12 "Hg (Apr 5, 6:50 AM)
Low57 °F (Apr 4, 5:50 AM)19% (Apr 7, 9:50 AM)29.80 "Hg (Apr 7, 5:50 AM)
Average69 °F66%29.94 "Hg
* Reported Apr 3 7:50 PM — Apr 18 7:50 PM, Ra'anana, Weather by CustomWeather, © 2014

Note: Actual official high and low records may vary slightly from our data, if they occured in-between our weather recording intervals... More about our weather records

Advertising

Historic Weather Conditions — Data for Previous 24 hours

 ConditionsComfort  
Time TempWeatherWind HumidityBarometerVisibility
7:50 PM
Apr 18
81 °FSunny.6 mph30%29.86 "Hg10 mi
6:50 PM82 °FSunny.5 mph40%29.86 "Hg10 mi
5:50 PM84 °FSunny.8 mph27%29.89 "Hg10 mi
4:50 PM84 °FSunny.6 mph25%29.89 "Hg10 mi
3:50 PM82 °FSunny.7 mph37%29.89 "Hg10 mi
2:50 PM79 °FSunny.6 mph39%29.92 "Hg10 mi
1:50 PM77 °FSunny.6 mph47%29.92 "Hg10 mi
12:50 PM75 °FPassing clouds.6 mph57%29.92 "HgN/A
11:50 AM75 °FPassing clouds.5 mph54%29.92 "HgN/A
10:50 AM75 °FPassing clouds.7 mph50%29.92 "HgN/A
9:50 AM75 °FPassing clouds.6 mph39%29.92 "HgN/A
8:50 AM72 °FPassing clouds.5 mph61%29.92 "HgN/A
7:50 AM66 °FPassing clouds.6 mph78%29.89 "HgN/A
6:50 AM63 °FClear.3 mph88%29.89 "Hg10 mi
5:50 AM61 °FClear.3 mph88%29.89 "Hg10 mi
10:50 PM
Apr 17
68 °FPassing clouds.3 mph78%29.86 "HgN/A
9:50 PM66 °FPassing clouds.3 mph78%29.86 "HgN/A
Weather by CustomWeather, © 2014

See weather overview